| time (UTC) | temp F | wind direction | speed MPH | gust MPH | rain 1hr in | rain 24hr in | rain mn in | humidity % | barometer mb |
| 20260504044523 | 65 | 13 | 5.0 | 13.0 | 0.00 | 0.00 | 0.00 | 25 | 1003.9 |
| 20260504043027 | 65 | 27 | 3.0 | 5.0 | 0.00 | 0.00 | 0.00 | 24 | 1003.7 |
| 20260504041531 | 67 | 34 | 4.0 | 9.0 | 0.00 | 0.00 | 0.00 | 21 | 1003.7 |
| 20260504040021 | 68 | 15 | 3.0 | 7.0 | 0.00 | 0.00 | 0.00 | 20 | 1003.8 |
| 20260504034521 | 67 | 12 | 2.0 | 7.0 | 0.00 | 0.00 | 0.00 | 22 | 1004.1 |
| 20260504033021 | 67 | 30 | 7.0 | 11.0 | 0.00 | 0.00 | 0.00 | 21 | 1004.0 |
| 20260504031520 | 67 | 100 | 0.0 | 0.0 | 0.00 | 0.00 | 0.00 | 24 | 1003.6 |
| 20260504030019 | 67 | 346 | 0.0 | 1.0 | 0.00 | 0.00 | 0.00 | 21 | 1003.4 |
| 20260504024520 | 68 | 144 | 0.0 | 1.0 | 0.00 | 0.00 | 0.00 | 21 | 1003.1 |
| 20260504023019 | 69 | 317 | 0.0 | 1.0 | 0.00 | 0.00 | 0.00 | 19 | 1003.1 |
| 20260504021518 | 70 | 15 | 0.0 | 1.0 | 0.00 | 0.00 | 0.00 | 18 | 1003.0 |
| 20260504020019 | 71 | 21 | 1.0 | 3.0 | 0.00 | 0.00 | 0.00 | 19 | 1002.8 |
| 20260504014524 | 71 | 58 | 2.0 | 4.0 | 0.00 | 0.00 | 0.00 | 17 | 1002.5 |
| 20260504013017 | 72 | 345 | 0.0 | 3.0 | 0.00 | 0.00 | 0.00 | 17 | 1002.5 |
| 20260504011517 | 74 | 346 | 3.0 | 6.0 | 0.00 | 0.00 | 0.00 | 15 | 1002.4 |
| 20260504010015 | 74 | 29 | 1.0 | 3.0 | 0.00 | 0.00 | 0.00 | 15 | 1002.4 |
| 20260504004520 | 74 | 356 | 3.0 | 10.0 | 0.00 | 0.00 | 0.00 | 15 | 1002.6 |
| 20260504003014 | 74 | 302 | 8.0 | 14.0 | 0.00 | 0.00 | 0.00 | 14 | 1002.5 |
| 20260504001514 | 76 | 338 | 1.0 | 10.0 | 0.00 | 0.00 | 0.00 | 14 | 1002.5 |
| 20260504000013 | 77 | 234 | 2.0 | 11.0 | 0.00 | 0.00 | 0.00 | 13 | 1002.6 |
| 20260503234511 | 77 | 246 | 3.0 | 7.0 | 0.00 | 0.00 | 0.00 | 12 | 1002.7 |
| 20260503233016 | 77 | 230 | 3.0 | 11.0 | 0.00 | 0.00 | 0.00 | 12 | 1002.7 |
| 20260503231509 | 77 | 288 | 9.0 | 45.0 | 0.00 | 0.00 | 0.00 | 12 | 1002.8 |
| 20260503230009 | 77 | 259 | 3.0 | 12.0 | 0.00 | 0.00 | 0.00 | 11 | 1002.9 |
| 20260503224507 | 77 | 163 | 2.0 | 10.0 | 0.00 | 0.00 | 0.00 | 12 | 1003.0 |
| 20260503223006 | 77 | 238 | 3.0 | 12.0 | 0.00 | 0.00 | 0.00 | 12 | 1003.3 |
| 20260503221502 | 77 | 248 | 3.0 | 9.0 | 0.00 | 0.00 | 0.00 | 11 | 1003.7 |
| 20260503220002 | 77 | 215 | 9.0 | 18.0 | 0.00 | 0.00 | 0.00 | 12 | 1003.8 |
| 20260503214557 | 77 | 263 | 5.0 | 11.0 | 0.00 | 0.00 | 0.00 | 11 | 1004.1 |
| 20260503213055 | 76 | 268 | 2.0 | 8.0 | 0.00 | 0.00 | 0.00 | 12 | 1004.6 |
| 20260503211552 | 75 | 214 | 3.0 | 14.0 | 0.00 | 0.00 | 0.00 | 13 | 1005.2 |
| 20260503210049 | 76 | 327 | 5.0 | 14.0 | 0.00 | 0.00 | 0.00 | 12 | 1005.7 |
| 20260503204547 | 75 | 197 | 7.0 | 14.0 | 0.00 | 0.00 | 0.00 | 13 | 1006.0 |
| 20260503203054 | 74 | 281 | 6.0 | 15.0 | 0.00 | 0.00 | 0.00 | 13 | 1006.4 |
| 20260503201549 | 75 | 260 | 3.0 | 13.0 | 0.00 | 0.00 | 0.00 | 13 | 1006.6 |
| 20260503200041 | 75 | 257 | 7.0 | 14.0 | 0.00 | 0.00 | 0.00 | 13 | 1006.8 |
| 20260503194541 | 73 | 319 | 8.0 | 14.0 | 0.00 | 0.00 | 0.00 | 14 | 1006.9 |
| 20260503193038 | 74 | 329 | 9.0 | 16.0 | 0.00 | 0.00 | 0.00 | 13 | 1007.2 |
| 20260503191536 | 74 | 285 | 5.0 | 17.0 | 0.00 | 0.00 | 0.00 | 15 | 1007.5 |
| 20260503190031 | 73 | 305 | 7.0 | 17.0 | 0.00 | 0.00 | 0.00 | 14 | 1008.0 |
| 20260503184528 | 73 | 305 | 6.0 | 14.0 | 0.00 | 0.00 | 0.00 | 16 | 1008.4 |
| 20260503183025 | 72 | 322 | 7.0 | 18.0 | 0.00 | 0.00 | 0.00 | 15 | 1008.8 |
| 20260503181523 | 72 | 271 | 5.0 | 15.0 | 0.00 | 0.00 | 0.00 | 16 | 1009.1 |
| 20260503180020 | 70 | 307 | 12.0 | 21.0 | 0.00 | 0.00 | 0.00 | 17 | 1009.3 |
| 20260503174519 | 71 | 274 | 9.0 | 23.0 | 0.00 | 0.00 | 0.00 | 18 | 1009.5 |
| 20260503173017 | 71 | 329 | 10.0 | 18.0 | 0.00 | 0.00 | 0.00 | 17 | 1009.8 |
| 20260503171515 | 71 | 287 | 11.0 | 22.0 | 0.00 | 0.00 | 0.00 | 17 | 1010.1 |
| 20260503081558 | 45 | 269 | 1.0 | 3.0 | 0.00 | 0.00 | 0.00 | 56 | 1013.1 |
| 20260503071609 | 45 | 269 | 0.0 | 0.0 | 0.00 | 0.00 | 0.00 | 59 | 1013.4 |